User: anonymous   Login
Location: York
(31.8935°S, 116.7682°E)
Time: 17:21:59
(UTC+08:00)
Language:

Transit 2A Rocket - Orbit

View from above orbital plane
View from above orbital plane
View from above satellite
View from above satellite

Ground track
Ground track

The orbit data is extracted from the following two-line orbital elements,

1 00047U 60007C   21165.64996427 -.00000061  00000-0  11366-4 0  9995
2 00047  66.6664 266.5074 0222924  36.6815 324.9314 14.42154676186907
Epoch (UTC): 14 June 2021 15:35:56
Eccentricity: 0.0222924
inclination: 66.6664°
perigee height: 592 km
apogee height: 910 km
right ascension of ascending node: 266.5074°
argument of perigee: 36.6815°
revolutions per day: 14.42154676
mean anomaly at epoch: 324.9314°
orbit number at epoch: 18690

The dashed part of the orbit path shows where the satellite is in the earth's shadow,  

DLR